Marrakech, Morocco

3:14 AM WET on November 24, 2017 (GMT +0000)
Marrakech

Weather History for GMMX - February, 2013

Change the Weather History Date:

Thursday, February 21, 2013

  Actual Average Record
Temperature  
Mean Temperature 56 °F -  
Max Temperature 71 °F 71 °F 80 °F (2001)
Min Temperature 42 °F 48 °F 41 °F (2003)
Degree Days  
Heating Degree Days 8    
Growing Degree Days 6 (Base 50)    
Moisture  
Dew Point 48 °F    
Average Humidity 74    
Maximum Humidity 100    
Minimum Humidity 38    
Precipitation  
Precipitation 0.00 in 0.05 in - ()
Sea Level Pressure  
Sea Level Pressure 30.12 in    
Wind  
Wind Speed 3 mph ()    
Max Wind Speed 10 mph    
Max Gust Speed -    
Visibility 6.0 miles    
Events      
Averages and records for this station are not official NWS values.
T = Trace of Precipitation, MM = Missing Value Source: Averaged Metar Reports

Daily Weather History Graph

Daily Weather History Graph

Search for Another Location

Airport or City:

Trip Planner

Search our weather history database for the weather conditions in past years. The results will help you decide how hot, cold, wet, or windy it might be!

Date:

Astronomy

Feb. 21, 2013 Rise Set
Actual Time 7:07 AM WET 6:23 PM WET
Civil Twilight 6:43 AM WET 6:48 PM WET
Nautical Twilight 6:14 AM WET 7:17 PM WET
Astronomical Twilight 5:46 AM WET 7:45 PM WET
Moon 2:36 PM WET (2/21) 3:52 AM WET (2/21)
Length of Visible Light 12h 05m
Length of Day
11h 16m
Waxing Gibbous, 82% of the Moon is Illuminated
Feb 21
Waxing Gibbous
Feb 25
Full
Mar 4
Last Quarter
Mar 11
New
Mar 19
First Quarter

Hourly Weather History & Observations

Time (WET) Temp. Windchill Dew Point Humidity Pressure Visibility Wind Dir Wind Speed Gust Speed Precip Events Conditions
12:00 AM 50 °F - 45 °F 77% 30.14 in 6 mi South 5.8 mph - -  
12:00 AM 50.0 °F - 44.6 °F 82% 30.12 in - South 5.8 mph - N/A   Clear
12:30 AM 50.0 °F - 44.6 °F 82% 30.12 in - South 5.8 mph - N/A   Clear
1:00 AM 48.2 °F - 44.6 °F 87% 30.09 in - South 3.5 mph - N/A   Clear
1:30 AM 48.2 °F - 42.8 °F 82% 30.09 in - Calm Calm - N/A   Clear
2:00 AM 46.4 °F - 42.8 °F 87% 30.09 in - Calm Calm - N/A   Clear
2:30 AM 46.4 °F - 42.8 °F 87% 30.09 in - Variable 1.2 mph - N/A   Clear
3:00 AM 46 °F - 43 °F 85% 30.13 in 6 mi Calm Calm - -  
3:00 AM 46.4 °F - 44.6 °F 93% 30.09 in - Calm Calm - N/A   Clear
3:30 AM 44.6 °F - 42.8 °F 93% 30.09 in - Calm Calm - N/A   Clear
4:00 AM 46.4 °F - 42.8 °F 87% 30.09 in - Calm Calm - N/A   Clear
4:30 AM 44.6 °F - 42.8 °F 93% 30.09 in - Calm Calm - N/A   Clear
5:00 AM 44.6 °F - 42.8 °F 93% 30.09 in - Calm Calm - N/A   Clear
5:30 AM 42.8 °F - 42.8 °F 100% 30.09 in - Calm Calm - N/A   Clear
6:00 AM 43 °F - 42 °F 95% 30.15 in 6 mi Calm Calm - -  
6:00 AM 42.8 °F - 42.8 °F 100% 30.09 in - Calm Calm - N/A   Clear
6:30 AM 44.6 °F - 42.8 °F 93% 30.12 in - Calm Calm - N/A   Clear
7:00 AM 44.6 °F - 42.8 °F 93% 30.12 in - Calm Calm - N/A   Clear
7:30 AM 46.4 °F 45.2 °F 42.8 °F 87% 30.12 in 6.2 mi South 3.5 mph - N/A   Scattered Clouds
8:00 AM 48.2 °F - 44.6 °F 87% 30.15 in 6.2 mi Calm Calm - N/A   Scattered Clouds
8:30 AM 50.0 °F - 44.6 °F 82% 30.15 in 6.2 mi Calm Calm - N/A   Scattered Clouds
9:00 AM 54 °F - 45 °F 62% 30.18 in 6 mi Calm Calm - -   Mostly Cloudy
9:00 AM 53.6 °F - 44.6 °F 72% 30.18 in 6.2 mi Calm Calm - N/A   Scattered Clouds
9:30 AM 57.2 °F - 46.4 °F 67% 30.18 in 6.2 mi Calm Calm - N/A   Mostly Cloudy
10:00 AM 59.0 °F - 46.4 °F 63% 30.18 in 5.6 mi Calm Calm - N/A   Mostly Cloudy
10:30 AM 62.6 °F - 48.2 °F 59% 30.18 in 5.0 mi Variable 2.3 mph - N/A   Mostly Cloudy
11:00 AM 62.6 °F - 46.4 °F 55% 30.18 in 5.0 mi Variable 2.3 mph - N/A   Scattered Clouds
11:47 AM 66 °F - 46 °F 38% 30.12 in 5 mi WNW 4.6 mph - -   Partly Cloudy
12:00 PM 66.2 °F - 48.2 °F 52% 30.15 in 5.0 mi WNW 3.5 mph - N/A   Scattered Clouds
12:30 PM 66.2 °F - 50.0 °F 56% 30.15 in 6.2 mi North 3.5 mph - N/A   Scattered Clouds
1:00 PM 68.0 °F - 50.0 °F 52% 30.12 in 6.2 mi NW 4.6 mph - N/A   Scattered Clouds
1:30 PM 68.0 °F - 50.0 °F 52% 30.12 in 6.2 mi WNW 5.8 mph - N/A   Scattered Clouds
2:00 PM 68.0 °F - 51.8 °F 56% 30.12 in 6.2 mi NW 5.8 mph - N/A   Scattered Clouds
2:30 PM 69.8 °F - 50.0 °F 49% 30.12 in 6.2 mi NW 5.8 mph - N/A   Scattered Clouds
3:00 PM 71 °F - 53 °F 42% 30.06 in 6 mi WNW 3.5 mph - -   Partly Cloudy
3:30 PM 66.2 °F - 51.8 °F 60% 30.09 in 6.2 mi WSW 5.8 mph - N/A   Mostly Cloudy
4:00 PM 69.8 °F - 51.8 °F 53% 30.09 in 6.2 mi WNW 3.5 mph - N/A   Mostly Cloudy
4:30 PM 68.0 °F - 51.8 °F 56% 30.09 in 6.2 mi WSW 6.9 mph - N/A   Mostly Cloudy
5:00 PM 68.0 °F - 51.8 °F 56% 30.09 in 6.2 mi West 8.1 mph - N/A   Mostly Cloudy
5:30 PM 66.2 °F - 51.8 °F 60% 30.09 in 6.2 mi West 8.1 mph - N/A   Mostly Cloudy
6:00 PM 65 °F - 51 °F 49% 30.08 in 6 mi WNW 4.6 mph - -   Partly Cloudy
6:00 PM 64.4 °F - 51.8 °F 64% 30.12 in 6.2 mi WNW 5.8 mph - N/A   Scattered Clouds
6:30 PM 64.4 °F - 50.0 °F 59% 30.12 in 6.2 mi WNW 3.5 mph - N/A   Scattered Clouds
7:00 PM 64.4 °F - 50.0 °F 59% 30.09 in 6.2 mi Calm Calm - N/A   Scattered Clouds
7:30 PM 60.8 °F - 51.8 °F 72% 30.09 in 6.2 mi SW 4.6 mph - N/A   Scattered Clouds
8:00 PM 59.0 °F - 51.8 °F 77% 30.09 in 6.2 mi West 6.9 mph - N/A   Scattered Clouds
8:30 PM 59.0 °F - 53.6 °F 82% 30.12 in 6.2 mi NW 10.4 mph - N/A   Scattered Clouds
9:00 PM 57 °F - 53 °F 80% 30.13 in 6 mi WNW 4.6 mph - -   Scattered Clouds
9:00 PM 57.2 °F - 51.8 °F 82% 30.12 in 6.2 mi WNW 4.6 mph - N/A   Scattered Clouds
9:30 PM 55.4 °F - 53.6 °F 94% 30.15 in 6.2 mi WSW 4.6 mph - N/A   Scattered Clouds
10:00 PM 57.2 °F - 53.6 °F 88% 30.15 in 6.2 mi SSW 5.8 mph - N/A   Scattered Clouds
10:30 PM 57.2 °F - 53.6 °F 88% 30.15 in 6.2 mi SW 4.6 mph - N/A   Scattered Clouds
11:00 PM 57.2 °F - 53.6 °F 88% 30.15 in 6.2 mi SW 6.9 mph - N/A   Scattered Clouds
11:30 PM 55.4 °F - 51.8 °F 88% 30.15 in 6.2 mi WSW 3.5 mph - N/A   Scattered Clouds